Pituffik, Greenland

1:45 AM ADT on June 04, 2020 (GMT -0300)
Thule Air Base

Weather History for BGTL - April, 2020

Change the Weather History Date:

Thursday, April 9, 2020

  Actual Average Record
Temperature  
Mean Temperature 13 °F -  
Max Temperature 19 °F 14 °F 35 °F (1998)
Min Temperature 4 °F 1 °F -22 °F (1999)
Degree Days  
Heating Degree Days 52    
Moisture  
Dew Point 14 °F    
Average Humidity 87    
Maximum Humidity 98    
Minimum Humidity 80    
Precipitation  
Precipitation 0.00 in 0.01 in - ()
Sea Level Pressure  
Sea Level Pressure 30.10 in    
Wind  
Wind Speed 29 mph ()    
Max Wind Speed 45 mph    
Max Gust Speed 53 mph    
Visibility 4.5 miles    
Events Snow    
Averages and records for this station are not official NWS values.
T = Trace of Precipitation, MM = Missing Value Source: Averaged Metar Reports

Daily Weather History Graph

Daily Weather History Graph

Search for Another Location

Airport or City:

Astronomy

Apr. 09, 2020 Rise Set
Actual Time 4:59 AM ADT 10:19 PM ADT
Civil Twilight 2:08 AM ADT 1:03 AM ADT
Nautical Twilight Sun does not set Sun does not set
Astronomical Twilight Sun does not set Sun does not set
Moon No Moon Rise 5:26 AM ADT (4/9)
Length of Visible Light 22h 54m
Length of Day
17h 20m
Waning Gibbous, 97% of the Moon is Illuminated
Apr 9
Waning Gibbous
Apr 14
Last Quarter
Apr 22
New
Apr 30
First Quarter
May 7
Full

Hourly Weather History & Observations

Time (ADT) Temp. Windchill Dew Point Humidity Pressure Visibility Wind Dir Wind Speed Gust Speed Precip Events Conditions
12:11 AM 17.6 °F -3.1 °F 15.8 °F 93% 30.18 in 6.2 mi SSE 34.5 mph 44.9 mph N/A   Squalls
12:20 AM 17.6 °F -2.8 °F 14.0 °F 86% 30.18 in 6.2 mi SSE 33.4 mph 39.1 mph N/A   Squalls
12:56 AM 18.0 °F -1.4 °F 14.2 °F 85% 30.19 in 6.2 mi SSE 29.9 mph 38.0 mph N/A   Clear
1:18 AM 17.6 °F -1.9 °F 14.0 °F 86% 30.18 in 6.2 mi SSE 29.9 mph 35.7 mph N/A   Squalls
1:56 AM 17.6 °F -1.6 °F 13.8 °F 85% 30.18 in 6.2 mi South 28.8 mph 34.5 mph N/A   Clear
2:46 AM 17.6 °F -1.0 °F 14.0 °F 86% 30.17 in 6.2 mi SSE 26.5 mph - N/A   Squalls
2:56 AM 17.1 °F -3.2 °F 13.8 °F 87% 30.17 in 6.2 mi SSE 32.2 mph - N/A   Clear
3:26 AM 17.6 °F -2.2 °F 14.0 °F 86% 30.20 in 6.2 mi SE 31.1 mph - N/A   Clear
3:56 AM 17.1 °F -2.4 °F 14.5 °F 90% 30.19 in 6.2 mi SSE 28.8 mph - N/A   Clear
4:56 AM 16.9 °F -2.9 °F 14.2 °F 89% 30.14 in 6.2 mi SSE 29.9 mph 38.0 mph N/A   Clear
5:33 AM 17.6 °F -3.3 °F 14.0 °F 86% 30.14 in 6.2 mi SSE 35.7 mph 41.4 mph N/A   Clear
5:41 AM 17.6 °F -2.8 °F 14.0 °F 86% 30.14 in 6.2 mi SSE 33.4 mph 41.4 mph N/A   Clear
6:56 AM 17.1 °F -3.5 °F 14.5 °F 90% 30.14 in 6.2 mi SSE 33.4 mph 39.1 mph N/A   Clear
8:56 AM 18.0 °F 0.2 °F 14.0 °F 84% 30.13 in 6.2 mi SSE 24.2 mph 33.4 mph N/A   Clear
10:56 AM 18.9 °F 0.1 °F 14.7 °F 84% 30.09 in 6.2 mi SSE 28.8 mph 36.8 mph N/A   Clear
11:16 AM 19.4 °F -1.1 °F 15.8 °F 86% 30.06 in 2.5 mi SSE 36.8 mph 46.0 mph N/A   Clear
11:20 AM 19.4 °F -0.8 °F 15.8 °F 86% 30.06 in - SSE 35.7 mph 46.0 mph N/A   Clear
11:53 AM 19.4 °F -1.8 °F 15.8 °F 86% 30.04 in 1.5 mi SSE 40.3 mph 48.3 mph N/A   Clear
11:54 AM 19.4 °F -2.0 °F 15.8 °F 86% 30.03 in 1.5 mi SSE 41.4 mph 48.3 mph N/A Snow Blowing Snow
11:55 AM 19.4 °F -1.6 °F 15.8 °F 86% 30.04 in 1.4 mi SSE 39.1 mph 48.3 mph N/A Snow Blowing Snow
11:56 AM 19.0 °F -1.8 °F 16.0 °F 88% 30.04 in 1.4 mi SSE 38.0 mph 48.3 mph 0.00 in Snow Blowing Snow
12:01 PM 19.4 °F -1.3 °F 15.8 °F 86% 30.04 in 0.9 mi SSE 38.0 mph 49.5 mph N/A Snow Blowing Snow
12:06 PM 19.4 °F -1.3 °F 15.8 °F 86% 30.04 in 0.9 mi SSE 38.0 mph 49.5 mph N/A Snow Blowing Snow
12:07 PM 19.4 °F -1.6 °F 15.8 °F 86% 30.04 in 0.9 mi SSE 39.1 mph 49.5 mph N/A   Clear
12:18 PM 19.4 °F -2.7 °F 15.8 °F 86% 30.03 in 0.9 mi SSE 44.9 mph 52.9 mph N/A Snow Blowing Snow
12:20 PM 19.4 °F -2.2 °F 15.8 °F 86% 30.04 in 0.7 mi SSE 42.6 mph 52.9 mph N/A Snow Blowing Snow
1:55 PM 18.7 °F -2.3 °F 16.2 °F 90% 30.04 in 3.1 mi SSE 38.0 mph 46.0 mph N/A Snow Blowing Snow
2:50 PM 19.4 °F -1.6 °F 15.8 °F 86% 30.04 in 6.2 mi SSE 39.1 mph 46.0 mph N/A Snow Low Drifting Snow
3:52 PM 19.4 °F -0.6 °F 14.0 °F 80% 30.04 in 3.7 mi SSE 34.5 mph - N/A   Haze
3:56 PM 18.5 °F -2.8 °F 14.4 °F 84% 30.04 in 3.1 mi SSE 39.1 mph - N/A   Haze
4:09 PM 19.4 °F -1.6 °F 14.0 °F 80% 30.04 in - South 39.1 mph 42.6 mph N/A   Haze
6:56 PM 17.4 °F -1.5 °F 12.9 °F 83% 30.07 in 6.2 mi South 27.6 mph - N/A   Partly Cloudy
8:56 PM 13.3 °F 7.3 °F 12.9 °F 98% 30.09 in 6.2 mi WSW 3.5 mph - N/A   Clear
9:56 PM 11.8 °F 5.7 °F 9.9 °F 92% 30.09 in 6.2 mi ENE 3.5 mph - N/A   Clear
10:56 PM 7.5 °F -1.1 °F 7.0 °F 98% 30.09 in 6.2 mi ESE 4.6 mph - N/A   Clear
11:56 PM 4.3 °F - 3.9 °F 98% 30.09 in 6.2 mi Calm Calm - N/A   Mostly Cloudy